Time,TemperatureF,DewpointF,PressureIn,WindDirection,WindDirectionDegrees,WindSpeedMPH,WindSpeedGustMPH,Humidity,HourlyPrecipIn,Conditions,Clouds,dailyrainin,SoftwareType,DateUTC
2013-01-14 00:13:00,60.4,59.0,30.14,SE,132,0.0,-999.0,94,-99.99,,,0.00,weatherlink.com 1.10,2013-01-14 05:13:00,
2013-01-14 00:28:00,60.1,59.0,30.15,SE,132,0.0,-999.0,95,-99.99,,,0.00,weatherlink.com 1.10,2013-01-14 05:28:00,
2013-01-14 00:44:00,59.8,58.0,30.15,SE,132,0.0,-999.0,95,-99.99,,,0.00,weatherlink.com 1.10,2013-01-14 05:44:00,
2013-01-14 00:59:00,59.5,58.0,30.15,SE,132,0.0,-999.0,95,-99.99,,,0.00,weatherlink.com 1.10,2013-01-14 05:59:00,
2013-01-14 01:14:00,59.4,58.0,30.15,SE,132,0.0,-999.0,95,-99.99,,,0.00,weatherlink.com 1.10,2013-01-14 06:14:00,
2013-01-14 06:45:00,58.7,58.0,30.15,SE,132,0.0,-999.0,98,-99.99,,,0.00,weatherlink.com 1.10,2013-01-14 11:45:00,
2013-01-14 07:14:00,58.5,58.0,30.15,SE,132,0.0,-999.0,98,-99.99,,,0.00,weatherlink.com 1.10,2013-01-14 12:14:00,
2013-01-14 07:29:00,58.6,58.0,30.16,SE,132,0.0,-999.0,98,-99.99,,,0.00,weatherlink.com 1.10,2013-01-14 12:29:00,
2013-01-14 07:43:00,58.4,58.0,30.16,SE,132,0.0,-999.0,98,-99.99,,,0.00,weatherlink.com 1.10,2013-01-14 12:43:00,
2013-01-14 07:59:00,58.9,58.0,30.17,SE,132,0.0,-999.0,98,-99.99,,,0.00,weatherlink.com 1.10,2013-01-14 12:59:00,
2013-01-14 08:13:00,59.6,59.0,30.17,SE,132,0.0,-999.0,98,-99.99,,,0.00,weatherlink.com 1.10,2013-01-14 13:13:00,
2013-01-14 08:29:00,60.6,60.0,30.18,SE,136,0.0,-999.0,98,-99.99,,,0.00,weatherlink.com 1.10,2013-01-14 13:29:00,
2013-01-14 08:44:00,63.3,63.0,30.18,SE,136,0.0,-999.0,99,-99.99,,,0.00,weatherlink.com 1.10,2013-01-14 13:44:00,
2013-01-14 08:59:00,65.9,66.0,30.19,WSW,246,0.0,-999.0,99,-99.99,,,0.00,weatherlink.com 1.10,2013-01-14 13:59:00,
2013-01-14 09:14:00,67.0,67.0,30.18,South,174,0.0,-999.0,98,-99.99,,,0.01,weatherlink.com 1.10,2013-01-14 14:14:00,
2013-01-14 09:29:00,68.6,68.0,30.20,West,262,1.0,-999.0,96,-99.99,,,0.01,weatherlink.com 1.10,2013-01-14 14:29:00,
2013-01-14 09:44:00,70.0,67.0,30.20,SSE,167,0.0,-999.0,91,-99.99,,,0.01,weatherlink.com 1.10,2013-01-14 14:44:00,
2013-01-14 10:00:00,72.5,68.0,30.19,SSE,159,0.0,-999.0,85,-99.99,,,0.01,weatherlink.com 1.10,2013-01-14 15:00:00,
2013-01-14 10:14:00,73.9,68.0,30.20,SSW,195,2.0,-999.0,82,-99.99,,,0.01,weatherlink.com 1.10,2013-01-14 15:14:00,
2013-01-14 10:29:00,74.9,68.0,30.20,ESE,117,2.0,-999.0,79,-99.99,,,0.01,weatherlink.com 1.10,2013-01-14 15:29:00,
2013-01-14 10:44:00,75.3,67.0,30.19,ESE,116,2.0,-999.0,75,-99.99,,,0.01,weatherlink.com 1.10,2013-01-14 15:44:00,
2013-01-14 10:59:00,75.9,66.0,30.19,South,175,4.0,-999.0,72,-99.99,,,0.01,weatherlink.com 1.10,2013-01-14 15:59:00,
2013-01-14 11:14:00,76.0,66.0,30.18,SSW,198,0.0,-999.0,71,-99.99,,,0.01,weatherlink.com 1.10,2013-01-14 16:14:00,
2013-01-14 11:29:00,77.1,67.0,30.18,SSE,165,0.0,-999.0,70,-99.99,,,0.01,weatherlink.com 1.10,2013-01-14 16:29:00,
2013-01-14 11:44:00,77.0,67.0,30.17,SSW,196,2.0,-999.0,71,-99.99,,,0.01,weatherlink.com 1.10,2013-01-14 16:44:00,
2013-01-14 12:00:00,77.3,66.0,30.16,SE,141,0.0,-999.0,68,-99.99,,,0.01,weatherlink.com 1.10,2013-01-14 17:00:00,
2013-01-14 12:14:00,78.4,65.0,30.15,SE,127,0.0,-999.0,64,-99.99,,,0.01,weatherlink.com 1.10,2013-01-14 17:14:00,
2013-01-14 12:30:00,78.7,66.0,30.15,SE,134,4.0,-999.0,66,-99.99,,,0.01,weatherlink.com 1.10,2013-01-14 17:30:00,
2013-01-14 12:44:00,78.2,65.0,30.14,South,169,0.0,-999.0,64,-99.99,,,0.01,weatherlink.com 1.10,2013-01-14 17:44:00,
2013-01-14 12:59:00,78.4,66.0,30.13,NW,324,0.0,-999.0,65,-99.99,,,0.01,weatherlink.com 1.10,2013-01-14 17:59:00,
2013-01-14 13:15:00,78.4,67.0,30.13,SSE,167,0.0,-999.0,69,-99.99,,,0.01,weatherlink.com 1.10,2013-01-14 18:15:00,
2013-01-14 13:30:00,78.5,68.0,30.12,SSE,157,7.0,-999.0,69,-99.99,,,0.01,weatherlink.com 1.10,2013-01-14 18:30:00,
2013-01-14 13:45:00,77.5,67.0,30.12,SE,145,4.0,-999.0,69,-99.99,,,0.01,weatherlink.com 1.10,2013-01-14 18:45:00,
2013-01-14 14:00:00,76.6,66.0,30.11,SSE,152,5.0,-999.0,70,-99.99,,,0.01,weatherlink.com 1.10,2013-01-14 19:00:00,
2013-01-14 14:15:00,76.8,67.0,30.11,ESE,120,0.0,-999.0,71,-99.99,,,0.01,weatherlink.com 1.10,2013-01-14 19:15:00,
2013-01-14 14:30:00,76.8,66.0,30.11,SSE,150,4.0,-999.0,69,-99.99,,,0.01,weatherlink.com 1.10,2013-01-14 19:30:00,
2013-01-14 14:45:00,76.4,66.0,30.12,SE,136,0.0,-999.0,71,-99.99,,,0.01,weatherlink.com 1.10,2013-01-14 19:45:00,
2013-01-14 15:00:00,76.7,66.0,30.12,ENE,70,0.0,-999.0,70,-99.99,,,0.01,weatherlink.com 1.10,2013-01-14 20:00:00,
2013-01-14 15:15:00,76.2,66.0,30.12,ENE,57,3.0,-999.0,71,-99.99,,,0.01,weatherlink.com 1.10,2013-01-14 20:15:00,
2013-01-14 15:30:00,76.5,66.0,30.13,SE,139,0.0,-999.0,70,-99.99,,,0.01,weatherlink.com 1.10,2013-01-14 20:30:00,
2013-01-14 15:45:00,76.2,66.0,30.13,NNE,17,2.0,-999.0,71,-99.99,,,0.01,weatherlink.com 1.10,2013-01-14 20:45:00,
2013-01-14 16:00:00,76.5,66.0,30.13,SSW,203,0.0,-999.0,70,-99.99,,,0.01,weatherlink.com 1.10,2013-01-14 21:00:00,
2013-01-14 16:15:00,76.0,66.0,30.14,SE,136,1.0,-999.0,70,-99.99,,,0.01,weatherlink.com 1.10,2013-01-14 21:15:00,
2013-01-14 16:30:00,75.3,66.0,30.14,WNW,296,1.0,-999.0,72,-99.99,,,0.01,weatherlink.com 1.10,2013-01-14 21:30:00,
2013-01-14 16:45:00,74.6,65.0,30.14,SSE,158,2.0,-999.0,72,-99.99,,,0.01,weatherlink.com 1.10,2013-01-14 21:45:00,
2013-01-14 17:00:00,73.9,65.0,30.14,SE,139,0.0,-999.0,73,-99.99,,,0.01,weatherlink.com 1.10,2013-01-14 22:00:00,
2013-01-14 17:15:00,73.4,65.0,30.15,South,174,0.0,-999.0,75,-99.99,,,0.01,weatherlink.com 1.10,2013-01-14 22:15:00,
2013-01-14 17:30:00,72.7,65.0,30.15,SSE,155,0.0,-999.0,77,-99.99,,,0.01,weatherlink.com 1.10,2013-01-14 22:30:00,
2013-01-14 17:45:00,72.0,65.0,30.15,SSE,148,0.0,-999.0,79,-99.99,,,0.01,weatherlink.com 1.10,2013-01-14 22:45:00,
2013-01-14 18:00:00,71.3,65.0,30.15,SE,142,2.0,-999.0,81,-99.99,,,0.01,weatherlink.com 1.10,2013-01-14 23:00:00,
2013-01-14 18:15:00,70.7,65.0,30.16,South,169,0.0,-999.0,82,-99.99,,,0.01,weatherlink.com 1.10,2013-01-14 23:15:00,
2013-01-14 18:30:00,70.3,65.0,30.16,SE,136,0.0,-999.0,83,-99.99,,,0.01,weatherlink.com 1.10,2013-01-14 23:30:00,
2013-01-14 18:45:00,70.2,65.0,30.16,NNE,24,0.0,-999.0,84,-99.99,,,0.01,weatherlink.com 1.10,2013-01-14 23:45:00,
2013-01-14 19:00:00,69.8,65.0,30.16,SSE,153,0.0,-999.0,85,-99.99,,,0.01,weatherlink.com 1.10,2013-01-15 00:00:00,
2013-01-14 19:15:00,69.5,65.0,30.16,SE,134,1.0,-999.0,85,-99.99,,,0.01,weatherlink.com 1.10,2013-01-15 00:15:00,
2013-01-14 19:30:00,69.1,65.0,30.16,SSE,161,0.0,-999.0,85,-99.99,,,0.01,weatherlink.com 1.10,2013-01-15 00:30:00,
2013-01-14 19:45:00,68.4,64.0,30.16,SSE,161,0.0,-999.0,86,-99.99,,,0.01,weatherlink.com 1.10,2013-01-15 00:45:00,
2013-01-14 20:15:00,68.0,64.0,30.16,SE,142,0.0,-999.0,88,-99.99,,,0.01,weatherlink.com 1.10,2013-01-15 01:15:00,
2013-01-14 20:30:00,68.2,65.0,30.15,SE,132,0.0,-999.0,88,-99.99,,,0.01,weatherlink.com 1.10,2013-01-15 01:30:00,
2013-01-14 20:45:00,68.3,65.0,30.16,SSE,147,0.0,-999.0,88,-99.99,,,0.01,weatherlink.com 1.10,2013-01-15 01:45:00,
2013-01-14 21:00:00,68.1,65.0,30.16,SE,136,0.0,-999.0,88,-99.99,,,0.01,weatherlink.com 1.10,2013-01-15 02:00:00,
2013-01-14 21:16:00,67.7,64.0,30.16,SE,146,0.0,-999.0,89,-99.99,,,0.01,weatherlink.com 1.10,2013-01-15 02:16:00,
2013-01-14 21:30:00,67.1,64.0,30.15,SE,146,0.0,-999.0,90,-99.99,,,0.01,weatherlink.com 1.10,2013-01-15 02:30:00,
2013-01-14 21:47:00,66.6,64.0,30.16,SE,146,0.0,-999.0,91,-99.99,,,0.01,weatherlink.com 1.10,2013-01-15 02:47:00,
2013-01-14 22:00:00,66.2,64.0,30.15,SE,146,0.0,-999.0,92,-99.99,,,0.01,weatherlink.com 1.10,2013-01-15 03:00:00,
2013-01-14 22:15:00,66.0,64.0,30.16,SE,146,0.0,-999.0,93,-99.99,,,0.01,weatherlink.com 1.10,2013-01-15 03:15:00,
2013-01-14 22:30:00,65.7,64.0,30.16,SE,146,0.0,-999.0,93,-99.99,,,0.01,weatherlink.com 1.10,2013-01-15 03:30:00,
2013-01-14 22:45:00,65.4,63.0,30.16,SE,146,0.0,-999.0,93,-99.99,,,0.01,weatherlink.com 1.10,2013-01-15 03:45:00,
2013-01-14 23:01:00,65.4,64.0,30.16,SE,146,0.0,-999.0,94,-99.99,,,0.01,weatherlink.com 1.10,2013-01-15 04:01:00,
2013-01-14 23:15:00,65.6,64.0,30.16,SE,146,0.0,-999.0,94,-99.99,,,0.01,weatherlink.com 1.10,2013-01-15 04:15:00,
2013-01-14 23:30:00,65.8,64.0,30.16,SE,146,0.0,-999.0,94,-99.99,,,0.01,weatherlink.com 1.10,2013-01-15 04:30:00,
2013-01-14 23:45:00,66.0,64.0,30.16,SE,146,0.0,-999.0,94,-99.99,,,0.01,weatherlink.com 1.10,2013-01-15 04:45:00,